Terug naar catalogus

CZ-6A DEB

ActiefPO
NORAD 61346·DEBRIS·🇨🇳 China

Gelanceerd Aug 6, 2024 vanaf Taiyuan Satellite Launch Center

Loading…

Volgende Passages (komende 24 uur)

TLE

VersSource: Space-Track

Epoch: Sep 14, 2026, 10:36 UTC

1 61346U 24140VK  26257.44225527  .00021436  00000-0  19444-2 0  9994
2 61346  88.9502 253.0066 0039097 236.1678 123.5830 14.94634298108323

Volg CZ-6A DEB in realtime met AllMySat

Download on the App Store